User: anonymous   Login
Location: Mentone
(34.5413°N, 85.5351°W)
Time: 22:05:25
(UTC-05:00)
Language:

S-56A Canister/Altair - Orbit

View from above orbital plane
View from above orbital plane
View from above satellite
View from above satellite

Ground track
Ground track

The orbit data is extracted from the following two-line orbital elements,

1 00082U 61004B   15106.67907139  .00000095  00000-0  11529-3 0  9991
2 00082 038.8610 349.2803 1173957 330.7458 023.2135 12.25688186576012
Epoch (UTC): 16 April 2015 16:17:51
Eccentricity: 0.1173957
inclination: 38.8610°
perigee height: 635 km
apogee height: 2500 km
right ascension of ascending node: 349.2803°
argument of perigee: 330.7458°
revolutions per day: 12.25688186
mean anomaly at epoch: 23.2135°
orbit number at epoch: 57601

The dashed part of the orbit path shows where the satellite is in the earth's shadow,  

DLR